STARLINK-1020, 44725

Orbit data source: Space-Track

STARLINK-1020, 44725 is a payload satellite owned by SpaceX/Seattle (US) in LEO that was launched on Mon, 11 Nov 2019 UTC via an FALCON 9 launch vehicle from the Air Force Eastern Test Range (AFETR). Payload-class satellites include a variety of spacecraft equipped with specific instruments for various scientific and technological missions. These include communications satellites like Starlink; space stations such as the ISS; scientific satellites like the Hubble; Earth observation satellites from companies like Planet Labs, Umbra, and HawkEye 360; GPS; miniature CubeSats for education and research; and military/defense satellites.

Loading next visibility...
Identifier
44725, 2019-074N
Orbit
LEO
Country
Flag of USUS
Related business
Manufacturer
SpaceX/Seattle
Mission
Operational Commercial Communications
Bus & Motor
STARLINK, Unknown motor
Mass
260 kg wet, ~248 kg dry
Launch date (UTC)
2019-11-11 (6 years ago)
Launch vehicle
FALCON 9
Launch site
Air Force Eastern Test Range (AFETR)
Object type
Payload
Rocket body
Debris
Shape & HBR
Box + 1 Pan, 10.1 m
Radar Cross Section
13.562 m², Large (>1 m²)

Expand to show TLE details & history
Last TLE update: 11 hours ago

TLE from 11 hours ago
0 STARLINK-1020
1 44725U 19074N   25286.65993329  .00000336  00000-0  41444-4 0  9995
2 44725  53.0522 146.6626 0001315  92.0521 268.0618 15.06399427326302
Epoch: 2025-10-13T15:50Z
TLE epoch observation values (Epoch: 2025-10-13T15:50:18.236Z)
Latitude
-0.00005°
Longitude
-113.37295°
Altitude
548.123 km
Speed
7.589 km/s
True Right ascension
09h 46m 39s
True Declination
0° 00' 00"
Sunlit
Object was in daylight at epoch
Visualization orbit readout
Latitude
Unknown
Longitude
Unknown
Altitude
Unknown
Speed
Unknown
Apparent Right ascension
Unknown
Apparent Declination
Unknown
Sunlit
N/A
Visualization observer readout
Local Sidereal Time
21:24:32
Azimuth
Unknown
Elevation
Unknown
Doppler factor
Unknown
Orbital elements
Apogee altitude
548.395 km
Perigee altitude
546.574 km
Semi-major axis
6,925.621 km
Eccentricity
0.00013
Inclination
53.0522°
RAAN
146.6626°
Arg. of periapsis
92.0521°
True anomaly
268.04674°
Mean anomaly
268.0618°
Eccentric anomaly
268.05427°
Mean motion
3.76578 °/min
Orbital period
95.6 mins
BSTAR
0.000041444
Loading maneuver chart data...
Computing Atmospheric mass density...
Loading historical data...
Loading historical data...
Loading historical data...
Loading historical data...
Loading historical data...
Loading historical data...
Loading historical data...

Documentation

Showing up to 5 results
|